Location: Unspecified
(49.8670°N, 0.0000°E)
Time: 19:30:29
(UTC+00:00)

Vanguard 1 - Pass Details

Date: 27 June 2019
Orbit: 655 x 3829 km, 34.2° (Epoch: 19 August)

Event Time Altitude Azimuth Distance (km) Brightness Sun altitude
Rises 07:36:23 0° 270° (W) 5,786 13.5 32.5°
Reaches altitude 10° 07:44:56 10° 238° (WSW) 3,777 12.7 33.9°
Maximum altitude 07:46:31 11° 228° (SW) 3,547 12.7 34.1°
Drops below altitude 10° 07:47:58 10° 218° (SW) 3,410 12.6 34.4°
Sets 07:53:35 0° 179° (S) 3,718 13.1 35.3°
